Tracking 21679 objects as of 30-Oct-2020
HD Live streaming from Space Station
objects crossing your sky now

BEIDOU 1B

Track BEIDOU 1B now!
BEIDOU 1B is classified as:


NORAD ID: 26643
Int'l Code: 2000-082A
Perigee: 35,727.9 km
Apogee: 36,433.8 km
Inclination: 9.7 °
Period: 1,450.8 minutes
Semi major axis: 42451 km
RCS: 0.1238 m2 (medium)
Launch date: December 20, 2000
Source: People's Republic of China (PRC)
Launch site: Xichang Space Center, China (XSC)

Space-bsaed navigation and positioning system to improve accuracy of weapons and situational awareness of military forces.
aabbcc
Your satellite tracking list
Your tracking list is empty




NASA's NSSDC Master Catalog

Two Line Element Set (TLE):
1 26643U 00082A   20303.08382957 -.00000245  00000-0  00000+0 0  9992
2 26643   9.6884  40.4441 0083131  37.1211 331.1225  0.99256284 72434
Source of the keplerian elements: AFSPC